Terminal Aerodrome Forecast
Issued by NWS Charleston, WV

Current Version | Previous Version | Graphics & Text | Print | Product List | Glossary On
Versions: 1 2 3 4 5 6 7 8 9 10 11 12 13 14 15 16 17 18 19 20 21 22 23 24 25 26 27 28
000
FTUS41 KRLX 010529
TAFEKN
TAF
KEKN 010529Z 0106/0206 26004KT 6SM BR BKN025
     FM010800 VRB03KT 3SM BR BKN025
     FM011300 27004KT P6SM BKN020
     FM011500 26009KT P6SM BKN035
     FM011900 28010KT P6SM SCT035
     FM020300 25004KT 5SM BR SCT035=

USA.gov is the U.S. government's official web portal to all federal, state and local government web resources and services.